Regional Weather Roundup
Issued by NWS San Diego, CA

Home | Current Version | Previous Version | Text Only | Print | Product List | Glossary On
Versions: 1 2 3 4 5 6 7 8 9 10 11 12 13 14 15 16 17 18 19 20 21 22 23 24 25 26 27 28 29 30 31 32 33 34 35 36 37 38 39 40 41 42 43 44 45 46 47 48 49 50
000
ASUS46 KSGX 201910
RWRSGX

SAN DIEGO HOURLY WEATHER ROUNDUP
NATIONAL WEATHER SERVICE SAN DIEGO CA
1200 PM PDT WED AUG 20 2014

NOTE: "FAIR" INDICATES FEW OR NO CLOUDS BELOW 12,000 FEET WITH NO
SIGNIFICANT WEATHER AND/OR OBSTRUCTIONS TO VISIBILITY.

CAZ042-043-060-061-PZZ750-775-202000-

GREATER SAN DIEGO AREA

CITY           SKY/WX    TMP DP  RH WIND       PRES   REMARKS
LINDBERGH FLD  PTSUNNY   72  61  68 SW5       29.96S
POINT LOMA       N/A     73  62  67 W9          N/A
NATIONAL CITY    N/A     73  64  73 SW3       29.96S
CHULA VISTA      N/A     76  65  70 W3        29.88S
IMPERIAL BEACH PTSUNNY   73  62  68 W12       29.95F
BROWN FIELD    PTSUNNY   75  61  61 VRB6      29.95S
MIRAMAR MCAS   PTSUNNY   72  60  66 W7        29.96R
MONTGOMERY FLD LGT RAIN  70  61  73 W7        29.96S

$$

NORTH SAN DIEGO COUNTY

CITY           SKY/WX    TMP DP  RH WIND       PRES   REMARKS
CAMP PENDLETON PTSUNNY   74  61  63 VRB6      29.94F
OCEANSIDE AP   PTSUNNY   76  60  57 VRB6      29.94S
CARLSBAD       PTSUNNY   72  59  64 S3        29.95S
DEL MAR          N/A     70  65  83 CALM      29.98S
FALLBROOK        N/A     71  69  94 SE8       29.95S
ESCONDIDO        N/A     73  65  74 NW3       29.96F
SAN MARCOS       N/A     69  63  82 CALM      29.93S
POWAY            N/A     73  63  70 N1        29.96S
R. PENASQUITOS   N/A     71  64  79 CALM      29.95S

$$

EAST SAN DIEGO COUNTY

CITY           SKY/WX    TMP DP  RH WIND       PRES   REMARKS
RAMONA         CLOUDY    71  57  61 NW9       29.97S
SANTEE LAKES     N/A     74  63  69 W10       29.95S
GILLESPIE FLD  FAIR      77  59  53 W9        29.96F
LA MESA          N/A     73  64  72 NW2       29.89S
JAMUL            N/A     77  63  61 CALM      29.92S
DESCANSO N       N/A     79  48  32 W9        29.80F
MT. LAGUNA OBS   N/A     65  40  39 SW3       29.73S
CAMPO            N/A     79  39  23 SW9       29.96F

$$

ORANGE COUNTY AND THE LOS ANGELES BASIN

CITY           SKY/WX    TMP DP  RH WIND       PRES   REMARKS
JOHN WAYNE AP  MOSUNNY   80  60  50 SW12      29.93F
LAGUNA BEACH     N/A     77  65  66 SE3       29.90F
LAKE FOREST FR   N/A     80  58  47 CALM      29.84F
SANTA ANA        N/A     80  66  61 CALM      29.88F
HUNTINGTON BCH   N/A     77  66  68 SW6       29.96F
LOS ALAMITOS   MOSUNNY   78  62  56 VRB6      29.93F
FULLERTON      SUNNY     80  56  43 VRB6      29.92F
LONG BEACH     SUNNY     78  60  53 S7        29.93F
L.A. AP        MOSUNNY   75  58  55 W5        29.94F
L.A. DOWNTOWN  SUNNY     81  59  47 VRB3      29.92F

$$

THE INLAND EMPIRE

CITY           SKY/WX    TMP DP  RH WIND       PRES   REMARKS
CHINO          MOSUNNY   79  57  46 MISG      29.94F
ONTARIO        MOSUNNY   79  53  40 NW7       29.94F
SAN BERNARDINO PTSUNNY   79  48  34 W6        29.94F
RIVERSIDE AP   PTSUNNY   78  56  46 SW5       29.94F
RIV CYN CREST    N/A     75  65  72 W1        29.92F
MORENO VALLEY    N/A     74  56  53 CALM      29.14S
MARCH ARB      MOSUNNY   72  57  57 VRB3      29.97S
HORSETHIEF CYN   N/A     77  54  43 CALM      29.94F
PERRIS           N/A     73  59  62 S2        29.95S
MENIFEE          N/A     74  63  68 S5        30.03S
HEMET EAST       N/A     65  60  84 CALM      29.94F
FRENCH VALLEY  FAIR      73  63  68 E6        29.97S
TEMECULA         N/A     66  65  96 S2        29.94R

$$

SAN BERNARDINO AND RIVERSIDE COUNTY MOUNTAINS

CITY           SKY/WX    TMP DP  RH WIND       PRES   REMARKS
BIG BEAR AP    MOSUNNY   63  32  31 SE14G23   30.20S
BIG BEAR SHEA    N/A     64  31  28 W8        29.89F
ANGELUS OAKS     N/A     70  46  40 CALM      29.80S
PINE COVE        N/A     59  45  59 S5        29.80F

$$

SOUTHERN DESERT INCLUDING THE COACHELLA VALLEY

CITY           SKY/WX    TMP DP  RH WIND       PRES   REMARKS
PALM SPRINGS   CLOUDY    91  53  27 NW8       29.88F
THOUSAND PALMS   N/A     90  53  28 W6        29.84S
PALM DESERT      N/A     92  57  30 CALM      27.20S
THERMAL        PTSUNNY   95  46  18 VRB7      29.81F
BLYTHE         MOSUNNY   95  46  18 CALM      29.85F
IMPERIAL AP    MOSUNNY   95  43  16 E6        29.83F
EL CENTRO NAS  PTSUNNY   96  39  13 VRB7      29.83F
YUMA AZ        PTSUNNY   95  60  31 VRB5      29.83F HX  95
MEXICALI       PTSUNNY   95  52  23 NE7       29.83

$$

UPPER DESERT

CITY           SKY/WX    TMP DP  RH WIND       PRES   REMARKS
VICTORVILLE AP MOSUNNY   82  46  28 S9G21     29.98S
HESPERIA         N/A     85  49  28 SW3       29.96F
APPLE VALLEY     N/A     83  45  26 SW3       30.03F
GRAY BUTTE AP  FAIR      81  29  15 VRB3      29.97F
PALMDALE       SUNNY     82  37  20 CALM      29.97F
LANCASTER      SUNNY     83  39  21 E5        29.96F
EDWARDS AFB    MOSUNNY   81  31  16 VRB2      29.96F
DAGGETT        MOSUNNY   84  36  18 CALM      29.94F
29 PALMS N     PTSUNNY   87  45  23 S9        30.01R
NEEDLES        SUNNY     95  51  22 CALM      29.88F

$$

REGIONAL REPORTS

CITY           SKY/WX    TMP DP  RH WIND       PRES   REMARKS
SANTA BARBARA  MOSUNNY   74  58  57 W9        29.95F
SANDBERG       SUNNY     76  36  23 S10G22    30.09R
MT. WILSON       N/A     68  50  52 MISG        N/A
LAS VEGAS NV   MOSUNNY   91  42  18 VRB3      29.90F
PHOENIX AZ     MOSUNNY   92  59  33 VRB3      29.91F
TIJUANA        PTSUNNY   75  57  53 W14       29.97S
ENSENADA NW      N/A     73  32  22 W6        29.92F

$$

OFFSHORE ISLANDS

CITY           SKY/WX    TMP DP  RH WIND       PRES   REMARKS
CATALINA ARPT  MOSUNNY   69  57  65 NE10      29.98F
SAN NICOLAS IS PTSUNNY   70  60  70 SW7       29.97S

$$

MARINE AND OFFSHORE BUOY REPORTS

STATION/POSITION SKY/WX   TEMP    WIND        PRES    SWELL
                          AIR SEA DIR/SP/G            HT/PER/DIR
                          (F)     (DEG/KT/KT) (MB)    (FT/S/D)
TANNER BANKS               65 68  330/  6/  8 1014.8F   3/210/14
S CLEMENTE BASIN           68 70  270/  6/  8 1014.4S   3/230/15
SAN NICOLAS IS.               65                N/A     2/190/14
SO. S. ROSA ISLA           65 67  290/  6/  6 1014.4R   3/14
W. S. BARBARA CH           62 61  340/  8/  8 1014.3R   3/310/ 9
M. S. BARBARA CH           64 65  290/  8/ 10 1014.6
S. MONICA BASIN            70 72  120/  4/  4 1013.9S   2/170/15
S PEDRO CHANNEL               69                N/A     2/160/11
DANA POINT                    73                N/A     2/210/15
CMP PENDLETON NS              73                N/A     2/220/15
OCEANSIDE OFFSHR              73                N/A     2/200/15
TORREY PINES OTR              73                N/A     2/220/14
LA JOLLA 1                 70 69  260/  4/  5 1014.4S
MISSION BAY BUOY              69                N/A     2/200/14
SAN DIEGO BAY                 73              1014.7S
POINT LOMA SOUTH              73                N/A     2/190/15

$$



USA.gov is the U.S. government's official web portal to all federal, state and local government web resources and services.